Вернуться в каталог

STARLINK-36697

АктивенСвязьSSO
NORAD 67698·PAYLOAD·🇺🇸 United States

Запущен Feb 7, 2026 с Vandenberg Space Force Base

Loading…

Ближайшие Пролёты (ближайшие 24 часа)

TLE

СвежийSource: CelesTrak SupGP

Эпоха: Sep 14, 2026, 21:15 UTC

1 67698C 26025F   26257.88590278 -.00025838  00000+0 -80192-3 0  2577
2 67698  97.2857   7.8943 0001034  89.7076  37.3361 15.33459063    15

Отслеживайте STARLINK-36697 в реальном времени с AllMySat

Download on the App Store